Tracking 29747 objects as of 9-Oct-2024
HD Live streaming from Space Station
objects crossing your sky now

STARLINK-2443

Track STARLINK-2443 now!
10-day predictions
STARLINK-2443 is classified as:


NORAD ID: 48107
Int'l Code: 2021-027R
Perigee: 553.0 km
Apogee: 555.0 km
Inclination: 53.1 °
Period: 95.6 minutes
Semi major axis: 6925 km
RCS: Unknown
Launch date: April 7, 2021
Source: United States (US)
Launch site: AIR FORCE EASTERN TEST RANGE (AFETR)
Your satellite tracking list
Your tracking list is empty




NASA's NSSDC Master Catalog

Two Line Element Set (TLE):
1 48107U 21027R   24282.36632821  .00088462  00000-0  58674-2 0  9991
2 48107  53.0549 313.9698 0001438  87.1437 272.9717 15.06503188194728
Source of the keplerian elements: AFSPC